• En España
  • Lista de países
  • Para 7 días
  • Temperatura del agua
  • Mapa Satelital
  • El tiempo en el mapa
  • Informadores
  • user-avatar
    Iniciar sesión

    Tiempo cada hora Shemenermuchash

    Hoy, 18 Agosto, Sábado

    Tiempo Temperatura Precipitaciones Viento Presión Humedad
    00:00 +10°C° 0 mm 2 mps 752 mmHg 87%
    01:00 +9°C° 0 mm 2 mps 752 mmHg 88%
    02:00 +9°C° 0 mm 2 mps 752 mmHg 89%
    03:00 +8°C° 0 mm 2 mps 753 mmHg 91%
    04:00 +9°C° 0 mm 2 mps 753 mmHg 89%
    05:00 +9°C° 0 mm 2 mps 753 mmHg 86%
    06:00 +10°C° 0 mm 2 mps 753 mmHg 84%
    07:00 +13°C° 0 mm 2 mps 753 mmHg 78%
    08:00 +13°C° 0 mm 3 mps 753 mmHg 71%
    09:00 +16°C° 0 mm 3 mps 753 mmHg 64%
    10:00 +17°C° 0 mm 3 mps 753 mmHg 61%
    11:00 +18°C° 0 mm 4 mps 753 mmHg 58%
    12:00 +19°C° 0 mm 4 mps 753 mmHg 56%
    13:00 +19°C° 0 mm 4 mps 753 mmHg 55%
    14:00 +19°C° 0 mm 4 mps 753 mmHg 55%
    15:00 +19°C° 0 mm 4 mps 752 mmHg 55%
    16:00 +19°C° 0 mm 3 mps 752 mmHg 60%
    17:00 +18°C° 0 mm 2 mps 752 mmHg 64%
    18:00 +17°C° 0 mm 2 mps 752 mmHg 69%
    19:00 +16°C° 0 mm 2 mps 752 mmHg 73%
    20:00 +14°C° 0 mm 1 mps 753 mmHg 77%
    21:00 +12°C° 0 mm 1 mps 753 mmHg 81%
    22:00 +12°C° 0 mm 1 mps 753 mmHg 83%
    23:00 +11°C° 0 mm 1 mps 753 mmHg 84%

    Mañana, 19 Agosto, Domingo

    Tiempo Temperatura Precipitaciones Viento Presión Humedad
    00:00 +10°C° 0 mm 0 mps 753 mmHg 85%
    01:00 +9°C° 0 mm 0 mps 753 mmHg 86%
    02:00 +9°C° 0 mm 0 mps 753 mmHg 86%
    03:00 +9°C° 0 mm 0 mps 753 mmHg 86%
    04:00 +10°C° 0 mm 0 mps 753 mmHg 84%
    05:00 +10°C° 0 mm 0 mps 753 mmHg 82%
    06:00 +11°C° 0 mm 0 mps 753 mmHg 80%
    07:00 +13°C° 0 mm 0 mps 753 mmHg 73%
    08:00 +15°C° 0 mm 0 mps 753 mmHg 67%
    09:00 +17°C° 0 mm 0 mps 753 mmHg 60%
    10:00 +20°C° 0 mm 1 mps 753 mmHg 56%
    11:00 +21°C° 0 mm 1 mps 753 mmHg 53%
    12:00 +22°C° 0 mm 1 mps 753 mmHg 49%
    13:00 +22°C° 0 mm 1 mps 752 mmHg 49%
    14:00 +22°C° 0 mm 1 mps 752 mmHg 49%
    15:00 +22°C° 0 mm 1 mps 752 mmHg 49%
    16:00 +22°C° 0 mm 1 mps 751 mmHg 54%
    17:00 +21°C° 0 mm 1 mps 751 mmHg 60%
    18:00 +20°C° 0 mm 1 mps 750 mmHg 65%
    19:00 +18°C° 0 mm 1 mps 750 mmHg 68%
    20:00 +16°C° 0 mm 2 mps 750 mmHg 70%
    21:00 +14°C° 0 mm 2 mps 750 mmHg 73%
    22:00 +14°C° 0 mm 2 mps 750 mmHg 74%
    23:00 +13°C° 0 mm 2 mps 750 mmHg 76%

    Pasado mañana, 20 Agosto, Lunes

    Tiempo Temperatura Precipitaciones Viento Presión Humedad
    00:00 +13°C° 0 mm 2 mps 750 mmHg 77%
    01:00 +13°C° 0 mm 2 mps 750 mmHg 80%
    02:00 +12°C° 0 mm 2 mps 749 mmHg 84%
    03:00 +12°C° 0 mm 2 mps 749 mmHg 87%
    04:00 +12°C° 0 mm 3 mps 749 mmHg 86%
    05:00 +12°C° 0 mm 3 mps 749 mmHg 85%
    06:00 +13°C° 0 mm 3 mps 748 mmHg 85%
    07:00 +15°C° 0 mm 4 mps 748 mmHg 79%
    08:00 +17°C° 0 mm 4 mps 748 mmHg 73%
    09:00 +19°C° 0 mm 5 mps 747 mmHg 68%
    10:00 +20°C° 0 mm 5 mps 747 mmHg 66%
    11:00 +21°C° 0 mm 5 mps 747 mmHg 65%
    12:00 +22°C° 0 mm 5 mps 747 mmHg 63%
    13:00 +21°C° 0,4 mm 5 mps 746 mmHg 71%
    14:00 +20°C° 0,4 mm 4 mps 746 mmHg 78%
    15:00 +19°C° 0,4 mm 3 mps 746 mmHg 85%
    16:00 +19°C° 0,2 mm 3 mps 745 mmHg 85%
    17:00 +19°C° 0,2 mm 3 mps 745 mmHg 85%
    18:00 +20°C° 0,2 mm 3 mps 745 mmHg 84%
    19:00 +19°C° 0,2 mm 2 mps 745 mmHg 87%
    20:00 +18°C° 0,2 mm 2 mps 745 mmHg 90%
    21:00 +16°C° 0,2 mm 2 mps 745 mmHg 94%
    22:00 +16°C° 0 mm 2 mps 745 mmHg 94%
    23:00 +16°C° 0 mm 2 mps 745 mmHg 94%

    21 Agosto, Martes

    Tiempo Temperatura Precipitaciones Viento Presión Humedad
    00:00 +15°C° 0 mm 2 mps 745 mmHg 94%
    01:00 +15°C° 0 mm 2 mps 745 mmHg 95%
    02:00 +15°C° 0 mm 2 mps 745 mmHg 95%
    03:00 +15°C° 0 mm 2 mps 745 mmHg 95%
    04:00 +15°C° 0 mm 2 mps 745 mmHg 95%
    05:00 +15°C° 0 mm 2 mps 745 mmHg 94%
    06:00 +16°C° 0 mm 2 mps 745 mmHg 94%
    07:00 +17°C° 0 mm 2 mps 745 mmHg 89%
    08:00 +19°C° 0 mm 2 mps 745 mmHg 84%
    09:00 +20°C° 0 mm 2 mps 745 mmHg 79%
    10:00 +21°C° 0 mm 2 mps 745 mmHg 72%
    11:00 +24°C° 0 mm 3 mps 745 mmHg 66%
    12:00 +25°C° 0 mm 3 mps 744 mmHg 59%
    13:00 +25°C° 0,1 mm 3 mps 744 mmHg 60%
    14:00 +25°C° 0,1 mm 3 mps 744 mmHg 61%
    15:00 +25°C° 0,1 mm 4 mps 743 mmHg 62%
    16:00 +24°C° 0 mm 3 mps 743 mmHg 67%
    17:00 +22°C° 0 mm 3 mps 743 mmHg 72%
    18:00 +22°C° 0 mm 3 mps 742 mmHg 77%
    19:00 +21°C° 0 mm 3 mps 742 mmHg 80%
    20:00 +20°C° 0 mm 4 mps 742 mmHg 82%
    21:00 +19°C° 0 mm 4 mps 741 mmHg 85%
    22:00 +19°C° 0 mm 4 mps 741 mmHg 83%
    23:00 +19°C° 0 mm 5 mps 740 mmHg 81%

    22 Agosto, Miércoles

    Tiempo Temperatura Precipitaciones Viento Presión Humedad
    00:00 +19°C° 0 mm 5 mps 740 mmHg 79%
    01:00 +19°C° 0 mm 5 mps 739 mmHg 79%
    02:00 +17°C° 0 mm 5 mps 739 mmHg 78%
    03:00 +17°C° 0 mm 5 mps 739 mmHg 78%
    04:00 +17°C° 0,8 mm 5 mps 738 mmHg 82%
    05:00 +16°C° 0,8 mm 5 mps 738 mmHg 87%
    06:00 +16°C° 0,8 mm 5 mps 738 mmHg 91%
    07:00 +16°C° 0,5 mm 5 mps 738 mmHg 90%
    08:00 +16°C° 0,5 mm 5 mps 738 mmHg 89%
    09:00 +16°C° 0,5 mm 5 mps 739 mmHg 88%
    10:00 +17°C° 0,1 mm 5 mps 739 mmHg 81%
    11:00 +19°C° 0,1 mm 5 mps 739 mmHg 74%
    12:00 +19°C° 0,1 mm 5 mps 740 mmHg 67%
    13:00 +17°C° 0,3 mm 6 mps 740 mmHg 68%
    14:00 +17°C° 0,3 mm 6 mps 741 mmHg 70%
    15:00 +16°C° 0,3 mm 7 mps 741 mmHg 71%
    16:00 +15°C° 0 mm 6 mps 741 mmHg 72%
    17:00 +15°C° 0 mm 5 mps 742 mmHg 73%
    18:00 +14°C° 0 mm 4 mps 742 mmHg 75%
    19:00 +13°C° 0 mm 4 mps 743 mmHg 77%
    20:00 +12°C° 0 mm 4 mps 744 mmHg 79%
    21:00 +11°C° 0 mm 4 mps 744 mmHg 81%
    22:00 +10°C° 0 mm 4 mps 745 mmHg 81%
    23:00 +8°C° 0 mm 4 mps 745 mmHg 82%

    23 Agosto, Jueves

    Tiempo Temperatura Precipitaciones Viento Presión Humedad
    00:00 +8°C° 0 mm 4 mps 745 mmHg 82%
    01:00 +7°C° 0 mm 4 mps 746 mmHg 83%
    02:00 +7°C° 0 mm 4 mps 746 mmHg 84%
    03:00 +7°C° 0 mm 4 mps 746 mmHg 85%
    04:00 +7°C° 0 mm 4 mps 747 mmHg 85%
    05:00 +7°C° 0 mm 4 mps 747 mmHg 85%
    06:00 +7°C° 0 mm 4 mps 747 mmHg 86%
    07:00 +9°C° 0 mm 5 mps 747 mmHg 77%
    08:00 +10°C° 0 mm 6 mps 748 mmHg 69%
    09:00 +13°C° 0 mm 6 mps 748 mmHg 61%
    10:00 +13°C° 0 mm 6 mps 748 mmHg 58%
    11:00 +14°C° 0 mm 6 mps 748 mmHg 55%
    12:00 +15°C° 0 mm 7 mps 748 mmHg 52%
    13:00 +15°C° 0 mm 6 mps 748 mmHg 52%
    14:00 +15°C° 0 mm 6 mps 748 mmHg 52%
    15:00 +16°C° 0 mm 6 mps 748 mmHg 51%
    16:00 +15°C° 0 mm 5 mps 748 mmHg 56%
    17:00 +14°C° 0 mm 4 mps 748 mmHg 61%
    18:00 +14°C° 0 mm 3 mps 748 mmHg 65%
    19:00 +13°C° 0 mm 3 mps 748 mmHg 68%
    20:00 +12°C° 0 mm 3 mps 749 mmHg 70%
    21:00 +11°C° 0 mm 3 mps 749 mmHg 72%
    22:00 +11°C° 0 mm 3 mps 748 mmHg 72%
    23:00 +12°C° 0 mm 3 mps 748 mmHg 72%
    Mostrar más